Location: Kernascl�den
(48.0062°N, 3.3198°W)
Time: 22:48:36
(UTC+00:00)

ARGOS - Pass Details

Date: 21 January 2021
Orbit: 821 x 834 km, 98.4° (Epoch: 04 March)

Event Time Altitude Azimuth Distance (km) Brightness Sun altitude
Rises 18:52:12 0° 155° (SSE) 3,342 6.2 -19.0°
Reaches altitude 10° 18:54:33 10° 153° (SSE) 2,414 5.4 -19.4°
Maximum altitude 18:59:51 68° 72° (ENE) 890 3.0 -20.3°
Drops below altitude 10° 19:05:12 10° 350° (N) 2,438 5.6 -21.2°
Sets 19:07:34 0° 348° (NNW) 3,377 6.4 -21.6°
